Total_Precipitation_Accumulation
4.34 4.61 4.55 4.61 4.39 4.64 4.99 5.20 4.69 4.62 4.34 4.16 3.91 3.62 3.59 3.32 3.06 2.96 3.05 3.06 2.87 2.84 3.13 3.35 3.24 3.20 3.26 3.04 2.79 2.46 2.24 2.20 2.02 1.79 1.63 1.61 1.58 1.46 1.36 1.24 1.21 1.12 1.06
3.75 3.98 4.00 4.12 4.00 4.16 4.36 4.40 4.34 4.67 4.56 4.37 3.95 3.58 3.42 3.42 3.25 3.02 3.21 3.24 3.13 2.83 2.93 3.40 3.69 3.73 3.82 3.66 3.37 3.00 2.68 2.44 2.15 1.86 1.73 1.70 1.63 1.60 1.64 1.62 1.65 1.33 1.15
3.45 3.51 3.61 3.71 3.80 3.75 3.89 3.94 4.01 4.29 4.37 4.27 4.02 3.64 3.42 3.44 3.32 3.24 3.12 3.21 3.12 3.07 3.00 3.17 3.51 3.64 4.00 4.24 4.08 3.58 3.19 2.78 2.33 1.93 1.67 1.63 1.63 1.51 1.52 1.59 1.65 1.47 1.30
2.87 3.01 2.99 3.01 3.20 3.28 3.45 3.72 3.79 4.09 4.37 4.44 4.36 3.91 3.73 3.65 3.39 3.38 3.22 3.20 3.48 3.16 3.35 3.50 3.50 3.46 3.92 4.43 4.71 4.58 4.07 3.27 2.58 2.15 1.87 1.72 1.69 1.62 1.55 1.56 1.57 1.53 1.36
2.69 2.79 2.90 2.98 2.71 2.88 3.12 3.02 3.52 3.82 4.19 4.29 3.83 3.87 3.64 3.52 3.52 3.24 3.29 3.18 3.36 3.41 3.60 3.61 3.63 3.51 3.91 4.76 5.45 5.73 5.21 4.25 3.41 2.84 2.56 2.36 2.13 1.83 1.67 1.64 1.61 1.58 1.48
2.81 2.89 2.75 2.56 2.36 2.64 3.04 3.23 3.74 3.81 3.77 3.79 3.23 3.48 3.31 2.99 3.15 3.30 3.12 3.21 3.22 2.98 3.29 3.67 3.92 3.44 3.82 4.50 5.08 5.61 5.88 5.50 4.68 3.90 3.48 3.21 2.95 2.45 1.93 1.73 1.70 1.66 1.56
2.97 3.06 2.73 2.87 2.52 2.59 2.76 2.93 3.30 3.53 3.46 3.43 3.76 3.85 3.40 2.95 2.98 2.89 2.76 3.02 3.03 3.02 3.43 3.93 4.10 3.93 3.53 3.35 3.51 4.25 5.29 6.00 5.92 5.09 4.45 3.95 3.58 3.01 2.39 2.01 1.78 1.68 1.68
2.91 2.71 2.82 2.60 2.57 2.83 2.86 3.01 3.30 3.43 3.38 3.45 3.69 4.09 3.84 3.76 3.21 2.43 2.62 2.75 2.84 3.10 3.11 3.25 3.64 3.98 3.62 3.63 2.79 2.84 3.83 4.79 5.73 5.78 5.05 4.23 3.86 3.53 3.06 2.63 2.29 2.00 1.87
2.64 2.71 2.62 2.69 2.89 2.59 2.88 3.09 3.12 3.41 3.52 3.38 3.37 3.85 3.86 3.77 3.26 2.60 2.42 2.47 2.70 3.05 3.06 3.17 2.95 3.22 3.48 3.83 3.53 2.79 2.85 3.19 4.29 5.48 5.57 4.77 3.98 3.40 3.19 3.14 2.96 2.57 2.26
2.48 2.49 2.61 2.93 3.10 2.82 3.08 2.64 2.84 3.23 3.47 3.39 3.42 3.18 3.03 3.13 3.34 3.19 2.71 2.46 2.57 2.71 2.81 2.79 2.90 3.18 3.37 3.69 3.67 2.77 2.15 2.24 3.03 4.33 5.24 5.15 4.50 3.71 3.34 3.44 3.82 3.78 3.24
2.88 2.55 2.55 2.84 3.05 3.05 3.16 3.00 3.25 3.04 2.99 3.02 3.13 3.13 3.07 2.94 2.72 2.91 2.94 2.75 2.62 2.32 2.27 2.33 2.51 2.71 2.79 3.17 3.47 2.67 2.17 2.13 2.32 2.94 3.62 4.11 4.23 4.00 3.72 3.86 4.53 4.97 4.81
2.87 2.62 2.61 2.95 2.99 3.03 3.21 3.09 3.07 2.95 2.98 3.00 2.89 2.80 3.09 3.07 2.87 2.96 2.71 2.66 2.57 2.08 1.92 2.00 2.09 2.23 2.41 2.70 2.63 2.44 2.47 2.48 2.29 2.25 2.36 2.63 3.07 3.43 3.78 4.07 4.51 5.02 5.32
2.46 2.57 2.71 3.05 3.00 2.99 2.96 3.05 3.00 3.03 3.11 3.14 2.99 2.79 2.80 2.84 2.88 2.92 2.86 2.48 2.34 2.06 2.04 1.94 1.91 2.16 2.32 2.84 3.01 2.79 2.64 2.78 2.39 2.09 2.00 1.98 2.08 2.37 2.74 3.20 3.79 4.40 4.96
2.45 2.55 2.68 2.64 2.63 2.73 2.63 2.96 2.80 2.79 2.91 2.97 2.81 3.16 3.04 2.65 2.80 2.88 3.02 3.23 2.97 2.62 2.51 2.33 2.22 2.40 2.66 2.94 3.29 3.11 2.62 2.51 2.18 2.01 1.91 1.84 1.83 1.84 1.96 2.15 2.47 2.92 3.35
2.38 2.49 2.51 2.57 2.61 2.61 2.65 2.88 2.78 2.82 3.03 2.86 2.85 3.27 3.07 2.67 2.66 2.75 2.98 3.33 3.61 3.18 2.79 2.70 2.69 2.72 2.84 2.90 3.08 2.78 2.53 2.45 2.18 1.96 1.87 1.85 1.83 1.74 1.69 1.70 1.78 1.95 2.14
2.20 2.35 2.43 2.53 2.58 2.54 2.63 2.80 2.65 2.84 2.95 2.85 2.86 2.96 2.90 2.65 2.70 2.80 2.99 3.25 3.55 3.49 2.98 2.66 2.87 2.90 2.79 2.56 2.86 2.74 2.47 2.39 2.10 1.89 1.71 1.67 1.71 1.75 1.77 1.76 1.73 1.76 1.81
2.23 2.36 2.45 2.52 2.52 2.54 2.68 2.80 2.64 2.81 2.79 2.89 2.80 2.77 2.74 2.97 3.03 2.86 3.03 3.17 3.42 3.67 3.38 2.87 2.95 2.97 2.88 2.64 2.60 2.52 2.39 2.35 2.14 2.09 1.85 1.73 1.65 1.62 1.62 1.65 1.74 1.79 1.77
2.33 2.44 2.54 2.62 2.51 2.60 2.74 2.68 2.67 2.75 2.79 2.76 2.87 3.08 2.99 3.18 3.20 3.14 3.34 3.34 3.43 3.71 3.61 3.24 3.09 3.14 3.00 2.83 2.74 2.50 2.14 2.04 2.03 2.22 2.03 1.87 1.75 1.69 1.62 1.57 1.56 1.54 1.53
2.46 2.46 2.45 2.51 2.66 2.84 2.85 2.67 2.66 2.66 2.57 2.48 2.66 2.96 3.25 3.73 3.57 3.40 3.29 3.21 3.25 3.33 3.58 3.30 3.01 3.21 3.04 2.91 2.86 2.49 2.19 2.14 1.80 1.88 1.92 1.78 1.63 1.51 1.43 1.41 1.39 1.35 1.31
2.45 2.53 2.62 2.63 2.70 2.72 2.69 2.70 2.76 2.76 2.70 2.55 2.56 2.69 2.86 3.17 3.34 3.47 3.25 3.15 3.23 3.32 3.45 3.35 3.23 3.43 3.47 3.29 3.08 2.69 2.49 2.33 2.05 1.73 1.77 1.67 1.57 1.48 1.41 1.34 1.30 1.28 1.27
2.56 2.78 2.85 2.83 2.79 2.72 2.52 2.77 2.95 2.81 2.87 2.75 2.66 2.59 2.43 2.56 2.75 2.95 2.80 3.10 3.30 3.25 3.31 3.35 3.44 3.81 3.78 3.57 3.04 2.77 2.65 2.53 2.24 1.88 1.84 1.61 1.52 1.40 1.37 1.41 1.35 1.30 1.27
3.12 3.15 3.00 2.94 2.86 2.59 2.79 2.89 2.92 2.92 3.00 2.92 2.81 2.74 2.54 2.37 2.35 2.50 2.57 2.78 3.04 3.06 3.11 3.27 3.35 3.52 3.56 3.50 3.29 3.01 2.76 2.60 2.29 2.00 2.01 1.86 1.67 1.58 1.45 1.36 1.46 1.44 1.40
3.15 3.16 3.23 3.19 3.06 3.15 3.20 2.87 2.82 2.80 2.83 2.80 2.98 3.07 2.62 2.22 2.46 2.40 2.48 2.48 2.38 2.51 2.70 2.91 3.06 3.09 3.41 3.54 3.59 3.16 2.97 2.76 2.38 2.20 2.28 2.07 1.95 1.76 1.53 1.46 1.57 1.42 1.38
3.08 3.03 2.99 2.93 2.89 2.88 3.00 2.73 2.67 2.53 2.52 2.53 2.59 2.65 2.63 2.45 2.40 2.44 2.38 2.21 2.00 2.00 2.16 2.21 2.30 2.56 2.92 3.43 3.77 3.52 3.40 3.19 2.80 2.44 2.28 2.13 1.96 1.82 1.62 1.53 1.59 1.46 1.36
2.98 2.93 2.91 2.92 2.81 2.77 2.84 2.63 2.61 2.39 2.33 2.25 2.23 2.24 2.27 2.12 2.21 2.22 2.13 2.03 1.92 1.81 1.83 1.92 1.89 2.03 2.35 2.75 3.28 3.53 3.29 2.95 2.61 2.28 2.17 2.05 1.85 1.93 1.88 1.72 1.62 1.67 1.48
3.13 3.11 3.06 3.05 2.96 2.87 2.99 2.73 2.61 2.36 2.31 2.29 2.39 2.35 2.30 2.12 2.12 2.03 1.88 1.88 1.72 1.59 1.72 1.71 1.64 1.67 1.81 2.15 2.68 2.88 3.00 2.85 2.52 2.24 1.94 1.99 1.91 2.05 2.07 1.77 1.61 1.59 1.52